Tracking 31027 objects as of 19-Jul-2025
HD Live streaming from Space Station
objects crossing your sky now

COSMOS 2251 DEB

Track COSMOS 2251 DEB now!
10-day predictions


NORAD ID: 33936
Int'l Code: 1993-036ER
Perigee: 683.5 km
Apogee: 723.9 km
Inclination: 74.0 °
Period: 98.7 minutes
Semi major axis: 7074 km
RCS: 0.0956 m2 (small)
Launch date: June 16, 1993
Source: Commonwealth of Independent States (former USSR) (CIS)
Launch site: PLESETSK MISSILE AND SPACE COMPLEX (PKMTR)

Note: This is SATELLITE DEBRIS
Your satellite tracking list
IRIDIUM 33 DEB
Track 1 satellite(s)




NASA's NSSDC Master Catalog

Two Line Element Set (TLE):
1 33936U 93036ER  25199.74339120  .00002302  00000-0  49414-3 0  9992
2 33936  74.0195 318.0804 0028535 144.6261 215.6804 14.58960044867450
Source of the keplerian elements: AFSPC